Showing default

OPS 9346 (IDSCS 24), 3289

Orbit data source: Space-Track

OPS 9346 (IDSCS 24), 3289 is a payload satellite owned by SAMSO (US) in GEO that was launched on Thu, 13 Jun 1968 UTC via a TITAN IIIC launch vehicle from the Air Force Eastern Test Range (AFETR). Payload-class satellites include a variety of spacecraft equipped with specific instruments for various scientific and technological missions. These include communications satellites like Starlink; space stations such as the ISS; scientific satellites like the Hubble; Earth observation satellites from companies like Planet Labs, Umbra, and HawkEye 360; GPS; miniature CubeSats for education and research; and military/defense satellites.

Not visible in the next 10 days
Identifier
3289, 1968-050F
Orbit
GEO
Country
Flag of USUS
Related business
Manufacturer
Philco-Ford
Mission
Non-operational Defense Communications
Bus & Motor
IDCSP, Unknown motor
Mass
45 kg wet, 45 kg dry
Launch date (UTC)
1968-06-13 (57 years ago)
Launch vehicle
TITAN IIIC
Launch site
Air Force Eastern Test Range (AFETR)
Object type
Payload
Rocket body
Debris
Shape & HBR
Poly, 0.5 m
Radar Cross Section
0.926 m², Medium (>0.1 m² and < 1m²)

Expand to show TLE details & history
Last TLE update: 1 day ago

TLE from 1 day ago
0 OPS 9346 (IDSCS 24)
1 03289U 68050F   25260.06016907 -.00000104  00000-0  00000-0 0  9991
2 03289   6.5095  55.8091 0046863 132.9010 218.9254  1.07287688 47717
Epoch: 2025-09-17T01:26Z
TLE epoch observation values (Epoch: 2025-09-17T01:26:38.607Z)
Latitude
-0.97868°
Longitude
29.44229°
Altitude
34,074.858 km
Speed
3.133 km/s
True Right ascension
03h 09m 22s
True Declination
0° 58' 40"
Sunlit
Object was in daylight at epoch
Visualization orbit readout
Latitude
Unknown
Longitude
Unknown
Altitude
Unknown
Speed
Unknown
Apparent Right ascension
Unknown
Apparent Declination
Unknown
Sunlit
N/A
Visualization observer readout
Local Sidereal Time
02:42:04
Azimuth
Unknown
Elevation
Unknown
Doppler factor
Unknown
Orbital elements
Apogee altitude
34,117.746 km
Perigee altitude
33,739.965 km
Semi-major axis
40,306.993 km
Eccentricity
0.00469
Inclination
6.5095°
RAAN
55.8091°
Arg. of periapsis
132.901°
True anomaly
218.58952°
Mean anomaly
218.9254°
Eccentric anomaly
218.75731°
Mean motion
0.26821 °/min
Orbital period
1,342.24 mins
BSTAR
0
Loading maneuver chart data...
Computing Atmospheric mass density...
Loading historical data...
Loading historical data...
Loading historical data...
Loading historical data...
Loading historical data...
Loading historical data...
Loading historical data...

Documentation

Showing up to 5 results
|